CZ-6A DEB

Satellite information

Favourite Embed

Satellite Type and Status

DEBRISIN ORBIT

Key statistics

Satellite CZ-6A DEB at a glance.

Uptime

1083

Days in orbit

Revolutions

≈ 14.1

Per day

Orbit

SSO

Sun Synchronous Orbit

Inclination

98.8

Latest

Satellite identification and parameters

Extended collection of information and parameters for CZ-6A DEB.

Object identification

Identified? True

Debris? True

Object name: CZ-6A DEB

International designator: 2022-151AG

Object number (NORAD): 54289

Object ID (CCSDS): 54289

Country: PEOPLES REPUBLIC OF CHINA (PRC)

Current information (Y/N): Y

RCS size: SMALL

Orbital parameters

Period: 102.266 minutes

Inclination: 98.8393 deg

SMA: 7244.046 km

Apoapsis: 904.593 km

Periapsis: 827.229 km

RAAN: 296.8178 deg

Eccentricy: 0.00533986

Argument of periapsis: 286.9742 deg

Mean anomaly: 72.5579 deg

Mean motion: 14.08091794 rev/day

Mean motion (dot): 0.00000516 rev/day2

B* drag term: 0.00032460504 1/REarth

Two-line elements (TLE)

Creation date: Oct. 28, 2025, 7:11 p.m.

Reference frame: TEME

Reference center: EARTH

Epoch: Oct. 28, 2025, 11:45 a.m. UTC

TLE line 0: 0 CZ-6A DEB

TLE line 1: 1 54289U 22151AG 25301.48972922 .00000516 00000-0 32461-3 0 9994

TLE line 2: 2 54289 98.8393 296.8178 0053399 286.9742 72.5579 14.08091794151597

Live tracking on map

Real-time ground track for satellite CZ-6A DEB.

In-orbit conjunctions

A list of the most updated potential collisions computed for object CZ-6A DEB.

Target Orbit TCA Probability of collision Miss distance Type
CZ-6A DEB LEO 2025-04-13 00:51:17 0.0002588047 139.0 (m) DEBRIS
FENGYUN 1C DEB SSO 2024-09-26 10:11:41 0.0005518818 41.0 (m) DEBRIS
FENGYUN 1C DEB SSO 2024-06-20 09:31:27 0.0002624952 69.0 (m) DEBRIS

Associated space launch

Chinese satellite reported for atmospheric/ocean/environmental/spatial parameter research purposes, details TBD.

CZ-6A DEB was lifted into orbit during the mission ‘Long March 6A | Yunhai 3’, on board a Long March 6A space rocket.

The launch took place on Nov. 11, 2022, 10:52 p.m. from Launch Complex 9A.

For more information about the launch, click the button.

Launch to space Long March 6A | Yunhai 3
Long March 6A | Yunhai 3

Agency: N/A

Status: Launch Successful

Launch date: Nov. 11, 2022, 10:52 p.m. UTC

Rocket: Long March 6A

Launch pad: Launch Complex 9A

Location: Taiyuan Satellite Launch Center, People's Republic of China

...

Latest news about this satellite

There are no fresh news available about this satellite. Check back as we update our databases every day.


Newsletter sign-up

Weekly statistics, charts and insights to help you stay on top of the space industry.